FW4829 Weather Reports


time (UTC)temp
C
wind
direction
speed
KPH
gust
KPH
rain 1hr
cm
rain 24hr
cm
rain mn
cm
humidity
%
barometer
mb
20260505034552 17 42 0.0 6.4 0.00 0.00 0.00 78 1011.6
20260505033051 18 60 3.2 8.0 0.00 0.00 0.00 75 1011.4
20260505031552 20 358 3.2 6.4 0.00 0.00 0.00 75 1011.2
20260505030108 20 261 0.0 3.2 0.00 0.00 0.00 73 1011.1
20260505024550 21 231 0.0 6.4 0.00 0.00 0.00 71 1011.0
20260505023045 22 179 1.6 6.4 0.00 0.00 0.00 68 1010.8
20260505021543 22 216 1.6 6.4 0.00 0.00 0.00 66 1010.8
20260505020043 22 210 1.6 8.0 0.00 0.00 0.00 67 1010.9
20260505014601 22 173 1.6 6.4 0.00 0.00 0.00 66 1010.8
20260505013048 22 215 0.0 9.7 0.00 0.00 0.00 67 1010.9
20260505011541 22 261 3.2 11.3 0.00 0.00 0.00 67 1011.0
20260505010039 22 177 1.6 9.7 0.00 0.00 0.00 66 1010.9
20260505004545 22 229 1.6 6.4 0.00 0.00 0.00 65 1011.1
20260505003050 22 260 3.2 8.0 0.00 0.00 0.00 63 1010.9
20260505001526 22 202 1.6 11.3 0.00 0.00 0.00 65 1011.0
20260505000030 22 236 3.2 16.1 0.00 0.00 0.00 66 1011.2
20260504234621 21 182 4.8 11.3 0.00 0.00 0.00 66 1011.2
20260504233022 22 101 1.6 8.0 0.00 0.00 0.00 64 1011.2
20260504231518 21 208 1.6 8.0 0.00 0.00 0.00 66 1011.3
20260504230015 21 207 3.2 9.7 0.00 0.00 0.00 67 1011.4
20260504224517 21 221 3.2 12.9 0.00 0.00 0.00 67 1011.5
20260504223014 20 238 3.2 11.3 0.00 0.00 0.00 68 1011.9
20260504221508 20 233 1.6 11.3 0.00 0.00 0.00 69 1012.1
20260504220006 20 272 3.2 11.3 0.00 0.00 0.00 69 1012.2
20260504214504 20 262 1.6 11.3 0.00 0.00 0.00 70 1012.2
20260504213006 18 288 3.2 12.9 0.00 0.00 0.00 70 1012.4
20260504211652 18 207 1.6 11.3 0.00 0.00 0.00 71 1012.6
20260504210057 18 186 1.6 12.9 0.00 0.00 0.00 73 1012.8
20260504204556 18 98 4.8 12.9 0.00 0.00 0.00 72 1012.8
20260504203053 17 130 3.2 9.7 0.00 0.00 0.00 74 1013.0
20260504201555 17 151 3.2 11.3 0.00 0.00 0.00 75 1013.0
20260504200052 16 229 4.8 11.3 0.00 0.00 0.00 76 1013.2
20260504194551 16 136 4.8 11.3 0.00 0.00 0.00 76 1013.2
20260504193045 16 72 1.6 11.3 0.00 0.00 0.00 78 1013.2
20260504191641 16 209 3.2 11.3 0.00 0.00 0.00 79 1013.3
20260504190044 15 177 0.0 11.3 0.00 0.00 0.00 81 1013.3
20260504184546 15 148 4.8 14.5 0.00 0.00 0.00 81 1013.5
20260504183035 14 219 6.4 11.3 0.00 0.00 0.00 82 1013.3
20260504181535 14 194 3.2 11.3 0.00 0.00 0.00 83 1013.3
20260504180032 13 148 6.4 16.1 0.00 0.00 0.00 82 1013.3
20260504174528 13 108 4.8 14.5 0.00 0.00 0.00 84 1013.4
20260504173026 13 199 3.2 12.9 0.00 0.00 0.00 85 1013.4
20260504171523 13 194 3.2 11.3 0.00 0.00 0.00 85 1013.2
20260504081556 22 51 6.4 17.7 0.00 0.00 0.00 44 1008.7
20260504044520 25 335 11.3 24.1 0.00 0.00 0.00 39 1008.6
20260504043020 25 32 12.9 22.5 0.00 0.00 0.00 38 1008.5
20260504041529 25 352 9.7 25.7 0.00 0.00 0.00 37 1008.3
20260504040013 25 337 8.0 25.7 0.00 0.00 0.00 37 1008.3